Location: Courcelles
(49.2596°N, 1.7419°E)
Time: 20:40:58
(UTC+00:00)

CZ-4C R/B - Pass Details

Date: 17 November 2025
Orbit: 487 x 1492 km, 63.4° (Epoch: 05 December)

Event Time Altitude Azimuth Distance (km) Brightness Sun altitude
Rises 20:02:21 0° 308° (NW) 3,314 6.1 -37.7°
Reaches altitude 10° 20:05:00 10° 322° (NW) 2,540 5.2 -38.1°
Enters shadow 20:07:25 20° 343° (NNW) 2,043 4.4 -38.5°
